Location: Brno
(49.2000°N, 16.6330°E)
Time: 13:04:51
(UTC+02:00)

Meteor 1-4 Rocket - Visible Passes

Search period start: 18 April 2014 00:00
Search period end: 28 April 2014 00:00
Orbit: 472 x 541 km, 81.2° (Epoch: 17 April)

Date Brightness Start Highest point End Pass type
(mag) Time Alt. Az. Time Alt. Az. Time Alt. Az.
21 Apr 5.7 05:14:47 10° ESE 05:16:51 15° E 05:18:55 10° NE visible
22 Apr 5.9 04:57:37 10° ESE 04:58:55 12° E 05:00:12 10° ENE visible
27 Apr 4.1 05:00:19 10° SSE 05:03:39 37° E 05:06:59 10° NNE visible
